[[{"header":{"parameterUnit":"m.s-1","parameterCategory":1,"la1":30.2991,"la2":30.254,"lo1":-89.0895,"lo2":-89.0444,"dx":0.0017,"dy":0.0017,"nx":28,"ny":28,"refTime":"2023-01-27T09:00:00:Z","depth":0,"parameterNumber":2,"parameterNumberName":"U-component_of_WINDS"},"data":[0,0,0,0,0,0,0,0,0,0,0,0,0,0,0,0,0,0,0,0,0,0,0,0,0,0,0,0,0,0,0,0,0,0,0,0,0,0,0,0,0,0,0,0,0,0,0,0,0,0,0,0,0,0,0,0,0,0,-2.2627,-2.2627,0,-2.2683,-2.2683,-2.2684,-2.2649,-2.2647,-2.2645,-2.2644,-2.2702,-2.2705,-2.2708,0,0,0,0,0,0,0,0,0,0,0,0,0,-2.2491,-2.2493,-2.2627,-2.2627,-2.2628,-2.2682,-2.2683,-2.2684,-2.2649,-2.2647,-2.2645,-2.2643,-2.2701,-2.2705,-2.2709,0,0,0,0,0,0,0,0,0,0,0,0,0,-2.2549,-2.2494,-2.2627,-2.2617,-2.2617,-2.2682,-2.2683,-2.2684,-2.2649,-2.2647,-2.2644,-2.2642,-2.27,-2.2705,-2.2709,-2.2787,0,0,-2.2723,-2.2725,0,0,0,0,0,0,0,0,-2.2545,-2.2554,-2.2618,-2.2618,-2.2618,-2.2656,-2.2657,-2.2719,-2.265,-2.2637,-2.2644,-2.2641,-2.2689,-2.2694,-2.271,-2.279,-2.2793,-2.2724,-2.2727,-2.2729,-2.273,0,0,0,0,0,0,0,-2.2541,-2.2551,-2.2649,-2.2619,-2.2619,-2.261,-2.2616,-2.2668,-2.2676,-2.2638,-2.2636,-2.2643,-2.2688,-2.2706,-2.2711,-2.2794,-2.2724,-2.2728,-2.2731,-2.2732,-2.294,-2.2943,0,0,0,0,0,0,-2.2538,-2.2548,-2.2647,-2.2651,-2.2575,-2.2615,-2.2621,-2.2646,-2.2676,-2.2678,-2.2645,-2.2641,-2.2699,-2.2706,-2.2713,-2.2807,-2.2729,-2.2733,-2.2736,-2.2937,-2.2941,-2.2944,0,0,0,0,0,0,-2.2535,-2.2547,-2.2645,-2.2599,-2.261,-2.262,-2.2649,-2.2649,-2.2666,-2.2681,-2.2682,-2.2661,-2.2698,-2.2707,-2.2769,-2.2808,-2.2735,-2.2739,-2.2934,-2.2938,-2.2942,-2.2994,0,0,0,0,0,0,-2.2531,-2.2546,-2.2576,-2.26,-2.2613,-2.27,-2.2651,-2.2652,-2.2674,-2.2669,-2.2696,-2.2698,-2.2696,-2.2762,-2.2774,-2.2813,-2.2743,-2.2931,-2.2936,-2.2941,-2.2989,-2.2999,-2.3008,0,0,0,0,0,-2.2527,-2.2589,-2.2578,-2.259,-2.265,-2.2702,-2.271,-2.2706,-2.2677,-2.2707,-2.2717,-2.2698,-2.2802,-2.2769,-2.2782,-2.2823,-2.2928,-2.2935,-2.294,-2.2984,-2.2997,-2.3008,0,0,0,0,0,0,-2.257,-2.2592,-2.258,-2.2651,-2.2675,-2.2696,-2.2733,-2.2719,-2.2752,-2.2746,-2.274,-2.2747,-2.2812,-2.2824,-2.2786,-2.29,-2.2861,-2.287,-2.289,-2.2902,-2.2912,-2.2907,-2.2747,0,0,0,0,0,-2.2588,-2.2628,-2.2645,-2.2706,-2.2719,-2.2724,-2.2747,-2.2741,-2.2766,-2.2776,-2.279,-2.2814,-2.2853,-2.2878,-2.2914,-2.299,-2.2996,-2.3025,-2.3035,-2.3043,-2.3051,-2.3091,-2.3104,-2.2964,-2.2964,-2.2964,0,0,-2.2626,-2.2642,-2.2668,-2.2715,-2.2733,-2.2775,-2.2733,-2.2779,-2.2809,-2.2783,-2.2842,-2.2853,-2.2881,-2.295,-2.2981,-2.2962,-2.3091,-2.3051,-2.3057,-2.306,-2.3099,-2.3112,-2.3124,-2.2968,-2.2967,-2.2967,0,0,-2.2715,-2.2732,-2.2785,-2.2803,-2.283,-2.2833,-2.2846,-2.2869,-2.2875,-2.2935,-2.2915,-2.2952,-2.3018,-2.3038,-2.3057,-2.3154,-2.3138,-2.3166,-2.3217,-2.3257,-2.3268,-2.3278,-2.3312,-2.3324,-2.3174,-2.3174,-2.3174,0,-2.2758,-2.282,-2.2814,-2.2861,-2.2882,-2.2859,-2.2913,-2.2931,-2.2969,-2.2984,-2.2962,-2.3045,-2.3061,-2.3135,-2.3158,-2.3175,-2.3189,-2.3163,-2.3267,-2.3276,-2.3285,-2.3318,-2.3331,-2.3177,-2.3177,-2.3176,-2.3176,0,-2.2871,-2.2914,-2.2954,-2.299,-2.3016,-2.3066,-2.3068,-2.3095,-2.3087,-2.3093,-2.3153,-2.3173,-2.3212,-2.3229,-2.3223,-2.3302,-2.3289,-2.3267,-2.3227,-2.3302,-2.3332,-2.3345,-2.3182,-2.3181,-2.318,-2.3179,0,0,-2.299,-2.3022,-2.3036,-2.3052,-2.308,-2.3114,-2.3163,-2.3201,-2.3224,-2.3251,-2.3292,-2.3348,-2.3327,-2.3349,-2.3345,-2.338,-2.3454,-2.3353,-2.3353,-2.3371,-2.3542,-2.3559,-2.3573,-2.3444,-2.3446,-2.3448,-2.354,0,-2.3081,-2.3166,-2.3161,-2.3241,-2.328,-2.3259,-2.3302,-2.3324,-2.333,-2.3365,-2.3372,-2.3412,-2.3382,-2.3395,-2.3429,-2.3438,-2.3489,-2.3431,-2.3482,-2.3484,-2.3475,-2.3589,-2.3606,-2.3692,-2.3552,-2.3554,-2.3555,0,-2.3198,-2.3228,-2.3311,-2.3333,-2.3349,-2.3388,-2.3422,-2.3455,-2.348,-2.3482,-2.3506,-2.3496,-2.3545,-2.3504,-2.3573,-2.3534,-2.3554,-2.3562,-2.3565,-2.357,-2.3524,-2.3596,-2.372,-2.3733,-2.3574,-2.3572,-2.3571,0,-2.3276,-2.3337,-2.3395,-2.3409,-2.3436,-2.3463,-2.3476,-2.3498,-2.3521,-2.3551,-2.3566,-2.3601,-2.3621,-2.3649,-2.3649,-2.3619,-2.3718,-2.3677,-2.3721,-2.3721,-2.3743,-2.3742,-2.3871,-2.3757,-2.3757,-2.3756,-2.3756,0,-2.3378,-2.3429,-2.343,-2.3465,-2.3523,-2.3517,-2.3574,-2.3584,-2.3604,-2.3641,-2.3625,-2.366,-2.3658,-2.3694,-2.3694,-2.375,-2.376,-2.3763,-2.3762,-2.3764,-2.3764,-2.3777,-2.3771,-2.376,-2.3759,-2.3758,-2.3758,0,-2.3474,-2.3477,-2.3538,-2.3558,-2.3564,-2.3605,-2.3623,-2.3656,-2.3661,-2.3708,-2.3719,-2.3727,-2.3768,-2.3771,-2.3819,-2.3819,-2.3887,-2.388,-2.3879,-2.3877,-2.3921,-2.3917,-2.4064,-2.4083,-2.3956,-2.3958,-2.3959,0,-2.3539,-2.3578,-2.3602,-2.3625,-2.3639,-2.3677,-2.37,-2.3696,-2.3721,-2.3751,-2.3782,-2.3821,-2.3852,-2.3919,-2.393,-2.3966,-2.396,-2.4009,-2.3965,-2.3966,-2.396,-2.3958,-2.3961,-2.4017,-2.4019,-2.402,-2.4021,0,-2.3653,-2.3652,-2.3685,-2.3719,-2.3747,-2.3774,-2.3799,-2.3819,-2.3818,-2.3847,-2.3888,-2.3913,-2.3961,-2.4,-2.4036,-2.4049,-2.4035,-2.4034,-2.4046,-2.4049,-2.4046,-2.4048,-2.3902,-2.4031,-2.403,-2.4029,-2.4029,-2.4028,-2.3735,-2.3769,-2.3791,-2.3828,-2.3846,-2.387,-2.3902,-2.3911,-2.3945,-2.3984,-2.398,-2.4026,-2.4049,-2.4095,-2.4111,-2.4147,-2.413,-2.4148,-2.4152,-2.4157,-2.4161,-2.404,-2.4153,-2.4153,-2.4153,-2.4153,-2.4152,0,-2.3849,-2.3861,-2.3896,-2.3931,-2.396,-2.3944,-2.397,-2.3996,-2.4037,-2.4059,-2.409,-2.4138,-2.4176,-2.4189,-2.4226,-2.4252,-2.4247,-2.4262,-2.426,-2.4263,-2.4174,-2.416,-2.4266,-2.4266,-2.4266,-2.4266,-2.4266,-2.4266,-2.3911,-2.3967,-2.3968,-2.4033,-2.4045,-2.4089,-2.4106,-2.4127,-2.4145,-2.4199,-2.423,-2.4238,-2.4257,-2.4295,-2.4329,-2.4332,-2.4346,-2.4364,-2.4365,-2.4281,-2.427,-2.4259,-2.4245,-2.4368,-2.4368,-2.4451,-2.4451,-2.4452]},{"header":{"parameterUnit":"m.s-1","parameterCategory":1,"la1":30.2991,"la2":30.254,"lo1":-89.0895,"lo2":-89.0444,"dx":0.0017,"dy":0.0017,"nx":28,"ny":28,"refTime":"2023-01-27T09:00:00:Z","depth":0,"parameterNumber":3,"parameterNumberName":"V-component_of_WINDS"},"data":[0,0,0,0,0,0,0,0,0,0,0,0,0,0,0,0,0,0,0,0,0,0,0,0,0,0,0,0,0,0,0,0,0,0,0,0,0,0,0,0,0,0,0,0,0,0,0,0,0,0,0,0,0,0,0,0,0,0,3.0189,3.019,0,3.0249,3.0249,3.025,3.0222,3.0221,3.0219,3.0218,3.0275,3.0277,3.028,0,0,0,0,0,0,0,0,0,0,0,0,0,3.0046,3.0049,3.0189,3.019,3.0191,3.0249,3.0249,3.025,3.0222,3.0221,3.0219,3.0217,3.0274,3.0277,3.0281,0,0,0,0,0,0,0,0,0,0,0,0,0,3.0107,3.005,3.0189,3.0184,3.0184,3.0249,3.0249,3.025,3.0223,3.0221,3.0218,3.0216,3.0273,3.0277,3.0281,3.0353,0,0,3.0294,3.0296,0,0,0,0,0,0,0,0,3.0104,3.0112,3.0184,3.0184,3.0185,3.0226,3.022,3.0285,3.0223,3.0208,3.0218,3.0215,3.026,3.0265,3.0281,3.0355,3.0358,3.0295,3.0297,3.0299,3.0301,0,0,0,0,0,0,0,3.01,3.011,3.0213,3.0185,3.0185,3.0177,3.0183,3.0232,3.0246,3.0209,3.0207,3.0215,3.026,3.0277,3.0282,3.0359,3.0295,3.0299,3.0301,3.0303,3.0492,3.0495,0,0,0,0,0,0,3.0096,3.0106,3.0211,3.0214,3.0138,3.0181,3.0188,3.0215,3.0245,3.0248,3.0217,3.0213,3.0271,3.0277,3.0284,3.0368,3.0299,3.0303,3.0306,3.049,3.0493,3.0496,0,0,0,0,0,0,3.0093,3.0106,3.0208,3.016,3.0172,3.0186,3.0216,3.0217,3.0234,3.0251,3.0253,3.0232,3.0269,3.0278,3.0336,3.037,3.0305,3.0309,3.0487,3.0491,3.0494,3.0538,0,0,0,0,0,0,3.0089,3.0105,3.0134,3.0161,3.0175,3.026,3.0218,3.022,3.0243,3.0239,3.0266,3.0268,3.0268,3.0329,3.034,3.0375,3.0313,3.0484,3.0489,3.0493,3.0534,3.0543,3.0551,0,0,0,0,0,3.0084,3.0143,3.0135,3.0148,3.0211,3.0263,3.027,3.027,3.0246,3.0273,3.0284,3.0267,3.0365,3.0336,3.0347,3.0384,3.0482,3.0488,3.0493,3.053,3.0541,3.0551,0,0,0,0,0,0,3.0118,3.0147,3.0138,3.0208,3.0233,3.0258,3.0293,3.0282,3.0314,3.0309,3.0306,3.0313,3.0372,3.0384,3.0351,3.0454,3.0419,3.0427,3.0444,3.0454,3.0463,3.0458,3.0316,0,0,0,0,0,3.0134,3.0175,3.0197,3.0256,3.0269,3.0279,3.0301,3.0299,3.0325,3.0335,3.0349,3.0373,3.0409,3.0433,3.0467,3.0536,3.054,3.0567,3.0575,3.0582,3.0589,3.0624,3.0635,3.0513,3.0513,3.0513,0,0,3.0167,3.0187,3.0213,3.0264,3.0283,3.0323,3.0288,3.0333,3.0362,3.0341,3.0396,3.0408,3.0434,3.0498,3.0526,3.0509,3.0623,3.0589,3.0595,3.0597,3.0631,3.0642,3.0652,3.0517,3.0517,3.0516,0,0,3.0246,3.0267,3.0318,3.0338,3.0368,3.0374,3.0386,3.0413,3.042,3.0475,3.046,3.0494,3.0557,3.0575,3.0593,3.0679,3.0664,3.069,3.0734,3.0769,3.0778,3.0786,3.0815,3.0826,3.0697,3.0697,3.0697,0,3.0283,3.0344,3.0345,3.0391,3.0412,3.0397,3.0446,3.0466,3.0505,3.0519,3.05,3.0577,3.0594,3.066,3.0681,3.0697,3.0709,3.0686,3.0777,3.0785,3.0793,3.082,3.0831,3.07,3.07,3.0699,3.0699,0,3.0386,3.0429,3.0466,3.0505,3.0531,3.0579,3.0585,3.0611,3.0606,3.0614,3.0669,3.0689,3.0726,3.0742,3.0738,3.0808,3.0796,3.0777,3.0742,3.0808,3.0833,3.0843,3.0704,3.0703,3.0702,3.0702,0,0,3.0488,3.0527,3.054,3.0557,3.0589,3.0621,3.0667,3.0704,3.0725,3.0753,3.079,3.0843,3.0825,3.0846,3.0843,3.0874,3.0938,3.0851,3.0852,3.0865,3.1013,3.1025,3.1038,3.0929,3.0931,3.0933,3.101,0,3.0568,3.0651,3.0652,3.0726,3.0765,3.075,3.079,3.0812,3.082,3.0853,3.0861,3.0898,3.0873,3.0885,3.0915,3.0924,3.0967,3.0919,3.0961,3.0963,3.0953,3.1051,3.1065,3.1137,3.102,3.1022,3.1023,0,3.0673,3.0704,3.0783,3.0808,3.0824,3.086,3.0893,3.0925,3.0949,3.0953,3.0976,3.0968,3.1013,3.0978,3.1039,3.1005,3.1023,3.103,3.1033,3.1035,3.0996,3.1054,3.116,3.117,3.1039,3.1038,3.1037,0,3.0737,3.0799,3.0853,3.0868,3.0899,3.0924,3.0938,3.0961,3.0982,3.1011,3.1025,3.1058,3.1076,3.1101,3.1102,3.1077,3.1162,3.1128,3.1165,3.1165,3.1182,3.118,3.129,3.1197,3.1197,3.1196,3.1196,0,3.0825,3.0873,3.0882,3.0915,3.0968,3.0969,3.102,3.1031,3.1052,3.1085,3.1075,3.1106,3.1107,3.1139,3.114,3.1189,3.1197,3.12,3.1199,3.12,3.1199,3.1209,3.1204,3.1199,3.1199,3.1198,3.1198,0,3.0904,3.0913,3.0971,3.0995,3.1003,3.104,3.106,3.1091,3.1098,3.1141,3.1151,3.1161,3.1198,3.1202,3.1245,3.1246,3.1303,3.1299,3.1295,3.1294,3.1329,3.1325,3.1448,3.1463,3.1362,3.1363,3.1364,0,3.0959,3.0996,3.1024,3.1047,3.1062,3.1099,3.1121,3.1122,3.1146,3.1176,3.1202,3.1238,3.1267,3.1326,3.1336,3.1369,3.1363,3.1404,3.1367,3.1366,3.1361,3.1358,3.136,3.141,3.1411,3.1412,3.1413,0,3.1055,3.1057,3.109,3.1125,3.1152,3.1179,3.1204,3.1222,3.1227,3.1253,3.1291,3.1313,3.1357,3.1392,3.1423,3.1435,3.1424,3.1424,3.1434,3.1434,3.143,3.143,3.1312,3.1421,3.142,3.142,3.1419,3.1419,3.1122,3.1153,3.1178,3.1215,3.1234,3.1258,3.1287,3.1298,3.133,3.1366,3.1365,3.1406,3.1428,3.147,3.1484,3.1515,3.1501,3.1516,3.1519,3.1522,3.1525,3.1427,3.1521,3.1521,3.1521,3.1521,3.152,0,3.1215,3.123,3.1264,3.13,3.1329,3.1317,3.1344,3.1368,3.1405,3.1427,3.1456,3.1498,3.1532,3.1545,3.1577,3.1599,3.1595,3.1608,3.1605,3.1607,3.1537,3.1524,3.1611,3.1611,3.1611,3.1611,3.1611,3.1611,3.1267,3.1318,3.1323,3.1383,3.1398,3.1439,3.1455,3.1476,3.1493,3.1542,3.157,3.1579,3.1597,3.163,3.166,3.1663,3.1674,3.1689,3.1689,3.1622,3.1613,3.1604,3.1592,3.1692,3.1692,3.1757,3.1758,3.1758]}]]